DMSP 5D-2 F13 DEB, 42263

Orbit data source: Space-Track

DMSP 5D-2 F13 DEB, 42263 is space debris in SSO originally from a launch on Fri, 24 Mar 1995 UTC launched from the Air Force Western Test Range (AFWTR). Debris objects in space refer to the collection of defunct objects orbiting the Earth. Examples of debris include non-operational satellites, rocket bodies, and fragments generated from explosions, collisions, or faulty payload assembly.

Loading next visibility...
Identifier
42263, 1995-015GD
Orbit
SSO
Country
Flag of USUS
Related business
Manufacturer
Unknown
Mission
Spacecraft
Bus & Motor
Unknown
Mass
Unknown
Launch date (UTC)
1995-03-24 (31 years ago)
Launch vehicle
Unknown
Launch site
Air Force Western Test Range (AFWTR)
Object type
Payload
Rocket body
Debris
Shape & HBR
Unknown shape, 0.1 m
Radar Cross Section
Medium (>0.1 m² and <1 m²)

Expand to show TLE details & history
Last TLE update: 12 hours ago

TLE from 12 hours ago
0 DMSP 5D-2 F13 DEB
1 42263U 95015GD  26150.04336529  .00001987  00000-0  13048-2 0  9996
2 42263  98.7429   3.6537 0113641  73.5949 287.7673 13.99937443565665
Epoch: 2026-05-30T01:02Z
TLE epoch observation values (Epoch: 2026-05-30T01:02:26.761Z)
Latitude
0.00001°
Longitude
100.47713°
Altitude
872.531 km
Speed
7.429 km/s
True Right ascension
00h 14m 36s
True Declination
0° 00' 00"
Sunlit
Object was in daylight at epoch
Visualization orbit readout
Latitude
Unknown
Longitude
Unknown
Altitude
Unknown
Speed
Unknown
Apparent Right ascension
Unknown
Apparent Declination
Unknown
Sunlit
N/A
Visualization observer readout
Local Sidereal Time
22:56:08
Azimuth
Unknown
Elevation
Unknown
Doppler factor
Unknown
Orbital elements
Apogee altitude
973.808 km
Perigee altitude
808.589 km
Semi-major axis
7,269.335 km
Eccentricity
0.01136
Inclination
98.7429°
RAAN
3.6537°
Arg. of periapsis
73.5949°
True anomaly
286.52188°
Mean anomaly
287.7673°
Eccentric anomaly
287.14512°
Mean motion
3.50188 °/min
Orbital period
102.8 mins
BSTAR
0.0013048
Loading maneuver chart data...
Computing Atmospheric mass density...

Documentation

Showing up to 5 results
|